Bel Air, Maryland - USA


Today's Data File


9/1/26
Time         Wind Dir   Wind Spd  Wind Gust     Hum In   Humidity    Temp In       Temp  Raw Barom Wind Chill  Press Alt Cloud Base   Dens Alt Temp Out R  DailyRain   24HrRain   RainRate
                    �        mph        mph          %          %         �F         �F         in         �F         ft         ft         ft      �F/hr         in         in      in/hr
12:00am           164          0          0         44         97       72.4       73.0      29.49       73.0        397        224       1414      -0.26       0.00       0.00      0.000
12:01am           164          0          0         44         97       72.4       73.0      29.49       73.0        398        224       1415      -0.26       0.00       0.00      0.000
12:02am           164          0          0         44         97       72.4       73.0      29.49       73.0        399        224       1416      -0.26       0.00       0.00      0.000
12:03am           164          0          0         44         97       72.4       73.0      29.49       73.0        400        224       1417      -0.25       0.00       0.00      0.000
12:04am           164          0          0         44         97       72.4       73.0      29.49       73.0        401        224       1418      -0.25       0.00       0.00      0.000
12:05am           164          0          0         44         97       72.4       73.0      29.49       73.0        401        224       1418      -0.24       0.00       0.00      0.000
12:06am           164          0          0         44         97       72.4       73.0      29.49       73.0        401        224       1418      -0.24       0.00       0.00      0.000
12:07am           164          0          0         44         97       72.4       73.0      29.49       73.0        402        224       1419      -0.24       0.00       0.00      0.000
12:08am           164          0          0         44         97       72.4       73.0      29.49       73.0        403        224       1420      -0.23       0.00       0.00      0.000
12:09am           164          0          0         44         97       72.4       73.0      29.49       73.0        404        224       1421      -0.23       0.00       0.00      0.000
12:10am           164          0          0         44         97       72.6       73.1      29.49       73.1        405        224       1429      -0.12       0.00       0.00      0.000
12:11am           164          0          0         44         97       72.6       73.0      29.48       73.0        406        224       1424      -0.22       0.00       0.00      0.000
12:12am           164          0          0         44         97       72.6       73.0      29.48       73.0        406        224       1425      -0.22       0.00       0.00      0.000
12:13am           164          0          0         44         97       72.6       73.1      29.48       73.1        406        224       1431      -0.11       0.00       0.00      0.000
12:14am           164          0          0         44         97       72.6       73.0      29.48       73.0        406        224       1424      -0.21       0.00       0.00      0.000
12:15am           164          0          0         44         97       72.4       73.0      29.48       73.0        406        224       1424      -0.21       0.00       0.00      0.000
12:16am           164          0          0         44         97       72.4       73.1      29.49       73.1        404        224       1428      -0.11       0.00       0.00      0.000
12:17am           164          0          0         44         97       72.4       73.0      29.49       73.0        403        224       1420      -0.20       0.00       0.00      0.000
12:18am           164          0          0         44         97       72.4       73.0      29.49       73.0        404        224       1421      -0.20       0.00       0.00      0.000
12:19am           164          0          0         44         97       72.4       73.1      29.49       73.1        403        224       1427      -0.10       0.00       0.00      0.000
12:20am           164          0          0         44         97       72.4       73.1      29.49       73.1        403        224       1427      -0.10       0.00       0.00      0.000
12:21am           164          0          0         44         97       72.4       73.0      29.49       73.0        404        224       1421      -0.19       0.00       0.00      0.000
12:22am           164          0          0         44         97       72.4       73.0      29.49       73.0        405        224       1423      -0.19       0.00       0.00      0.000
12:23am           164          0          0         44         97       72.4       73.1      29.48       73.1        406        224       1430      -0.09       0.00       0.00      0.000
12:24am           164          0          0         44         97       72.4       73.0      29.48       73.0        406        224       1424      -0.19       0.00       0.00      0.000
12:25am           164          0          0         44         97       72.4       73.1      29.48       73.1        406        224       1431      -0.08       0.00       0.00      0.000
12:26am           164          0          0         44         97       72.4       73.0      29.48       73.0        407        224       1426      -0.18       0.00       0.00      0.000
12:27am           164          0          0         44         97       72.4       73.0      29.48       73.0        407        224       1426      -0.18       0.00       0.00      0.000
12:28am           164          0          0         44         97       72.4       73.1      29.48       73.1        406        224       1431      -0.08       0.00       0.00      0.000
12:29am           164          0          0         44         97       72.4       73.0      29.48       73.0        407        224       1426      -0.18       0.00       0.00      0.000
12:30am           164          0          0         44         97       72.3       73.0      29.48       73.0        407        224       1426      -0.17       0.00       0.00      0.000
12:31am           164          0          0         44         97       72.4       73.1      29.48       73.1        407        224       1432      -0.07       0.00       0.00      0.000
12:32am           164          0          0         44         97       72.4       73.0      29.48       73.0        407        224       1426      -0.17       0.00       0.00      0.000
12:33am           164          0          0         44         97       72.4       73.0      29.48       73.0        407        224       1426      -0.16       0.00       0.00      0.000
12:34am           164          0          0         44         97       72.4       73.0      29.48       73.0        407        224       1426      -0.16       0.00       0.00      0.000
12:35am           164          0          0         44         97       72.4       73.0      29.48       73.0        407        224       1426      -0.16       0.00       0.00      0.000
12:36am           164          0          0         44         97       72.4       73.0      29.48       73.0        407        224       1426      -0.16       0.00       0.00      0.000
12:37am           164          0          0         44         97       72.4       73.0      29.48       73.0        407        224       1426      -0.15       0.00       0.00      0.000
12:38am           164          0          0         44         97       72.4       73.0      29.48       73.0        407        224       1426      -0.15       0.00       0.00      0.000
12:39am           164          0          0         44         97       72.4       73.0      29.48       73.0        407        224       1426      -0.15       0.00       0.00      0.000
12:40am           164          0          0         44         97       72.4       73.0      29.48       73.0        407        224       1426      -0.15       0.00       0.00      0.000
12:41am           164          0          0         44         97       72.4       72.9      29.48       72.9        407        224       1420      -0.24       0.00       0.00      0.000
12:42am           164          0          0         44         97       72.4       73.0      29.48       73.0        407        224       1426      -0.14       0.00       0.00      0.000
12:43am           164          0          0         44         97       72.4       72.9      29.48       72.9        407        224       1420      -0.24       0.00       0.00      0.000
12:44am           164          0          0         44         97       72.4       72.9      29.48       72.9        407        224       1420      -0.23       0.00       0.00      0.000
12:45am           164          0          0         44         97       72.4       72.9      29.48       72.9        408        224       1421      -0.23       0.00       0.00      0.000
12:46am           164          0          0         44         97       72.4       72.9      29.48       72.9        408        224       1421      -0.22       0.00       0.00      0.000
12:47am           164          0          0         44         97       72.4       72.9      29.48       72.9        408        224       1421      -0.22       0.00       0.00      0.000
12:48am           164          0          0         44         97       72.4       72.8      29.48       72.8        408        224       1414      -0.32       0.00       0.00      0.000
12:49am           164          0          0         44         97       72.4       72.8      29.48       72.8        408        224       1414      -0.31       0.00       0.00      0.000
12:50am           164          0          0         44         97       72.4       72.8      29.48       72.8        408        224       1414      -0.31       0.00       0.00      0.000
12:51am           164          0          0         44         97       72.4       72.8      29.48       72.8        408        224       1414      -0.30       0.00       0.00      0.000
12:52am           164          0          0         44         97       72.4       72.8      29.48       72.8        408        224       1414      -0.30       0.00       0.00      0.000
12:53am           164          0          0         44         97       72.4       72.8      29.48       72.8        408        224       1414      -0.29       0.00       0.00      0.000
12:54am           164          0          0         44         97       72.4       72.8      29.48       72.8        408        224       1414      -0.29       0.00       0.00      0.000
12:55am           164          0          0         44         97       72.4       72.7      29.48       72.7        408        224       1408      -0.38       0.00       0.00      0.000
12:56am           164          0          0         44         97       72.4       72.7      29.48       72.7        408        224       1408      -0.37       0.00       0.00      0.000
12:57am           164          0          0         44         97       72.4       72.7      29.48       72.7        408        224       1408      -0.37       0.00       0.00      0.000
12:58am           164          0          0         44         98       72.4       72.7      29.48       72.7        408        148       1408      -0.36       0.00       0.00      0.000
12:59am           164          0          0         44         97       72.4       72.7      29.48       72.7        408        224       1408      -0.36       0.00       0.00      0.000
1:00am            164          0          0         44         98       72.4       72.7      29.48       72.7        408        148       1408      -0.35       0.00       0.00      0.000
1:01am            164          0          0         44         98       72.4       72.7      29.48       72.7        408        148       1408      -0.34       0.00       0.00      0.000
1:02am            164          0          0         44         98       72.4       72.6      29.48       72.6        408        148       1402      -0.44       0.00       0.00      0.000
1:03am            164          0          0         44         98       72.4       72.6      29.48       72.6        408        148       1402      -0.43       0.00       0.00      0.000
1:04am            164          0          0         44         98       72.4       72.6      29.48       72.6        409        148       1403      -0.42       0.00       0.00      0.000
1:05am            164          0          0         44         98       72.4       72.6      29.48       72.6        409        148       1403      -0.42       0.00       0.00      0.000
1:06am            164          0          0         44         98       72.4       72.6      29.48       72.6        409        148       1403      -0.41       0.00       0.00      0.000

Data provided from:  Mark Hofmann's Bel Air, MD Weather Station